Location: Les Jeannots
(43.2262°N, 5.5774°E)
Time: 02:29:55
(UTC+00:00)

Cosmos 1606 - Pass Details

Date: 05 July 2020
Orbit: 505 x 527 km, 82.5° (Epoch: 04 August)

Event Time Altitude Azimuth Distance (km) Brightness Sun altitude
Rises 22:46:18 0° 356° (N) 2,662 7.7 -22.9°
Reaches altitude 10° 22:48:29 10° 2° (N) 1,772 6.4 -22.9°
Enters shadow 22:52:03 50° 64° (ENE) 675 3.2 -23.1°
